Wind_Speed
16 15 15 14 13 12 12 12 12 13 12 11 11 11 12 13 14 14 14 13 14 14 13 13 12 12 11 10 9 7 7 8 10 13 15 16 18 18 18 18 18 17 16 14
18 17 17 16 15 14 13 13 13 14 13 12 11 12 13 14 14 14 13 13 13 13 14 12 12 11 11 10 9 8 7 7 9 12 14 16 18 17 17 18 18 17 16 15
20 19 19 18 17 16 14 14 14 15 13 12 11 12 13 13 13 13 12 12 12 12 13 13 12 11 11 10 9 8 7 7 8 11 13 16 18 17 16 17 18 17 17 16
22 21 20 20 18 17 16 16 15 14 13 13 11 10 13 12 13 12 11 11 11 11 11 12 12 11 11 10 9 8 7 6 8 11 12 13 15 17 17 17 17 17 17 17
23 22 22 21 20 19 18 17 15 14 13 13 12 11 11 13 12 12 11 10 10 10 10 11 11 11 11 10 9 7 6 6 7 9 12 13 14 16 16 17 18 17 17 17
25 24 22 21 21 20 18 17 15 14 13 13 13 11 11 12 12 11 11 10 10 10 10 10 10 10 10 9 8 6 5 5 6 7 10 11 13 15 15 15 17 17 17 17
25 24 23 22 22 20 18 16 15 14 14 13 14 12 12 12 11 11 11 10 9 10 10 10 10 10 9 9 8 6 5 5 6 7 9 10 12 13 15 16 16 17 17 18
24 24 24 22 21 20 18 17 15 13 12 13 15 12 11 11 11 11 10 10 9 10 10 10 10 9 9 9 8 6 5 5 6 7 9 10 12 13 14 16 17 17 18 18
23 25 24 22 21 21 20 19 17 17 16 14 14 13 12 11 11 11 11 10 10 10 10 10 9 9 9 9 8 7 6 5 6 8 10 11 12 13 14 16 17 18 18 18
23 24 24 23 22 21 20 19 19 17 16 14 14 13 11 11 11 11 11 10 10 11 11 10 10 10 10 9 9 8 7 6 6 8 10 11 12 13 14 16 16 18 18 18
23 23 24 23 22 21 20 20 19 18 18 14 13 13 14 12 11 11 11 11 11 12 12 11 11 11 10 9 9 9 8 7 6 7 9 10 12 12 14 15 16 17 18 18
24 23 24 23 23 22 21 20 20 18 18 16 15 14 16 13 12 11 12 12 12 13 13 12 12 12 10 9 9 9 9 9 8 8 9 10 11 12 13 14 15 16 17 18
27 26 24 23 24 24 23 22 21 20 19 18 15 14 17 14 13 13 12 13 13 14 13 13 13 12 11 10 10 9 9 10 10 10 10 11 12 12 14 15 15 16 18 19
29 28 26 21 20 22 23 23 23 21 19 18 16 16 18 16 15 14 14 14 14 14 13 13 13 13 12 12 12 11 11 11 11 12 12 13 14 14 15 15 16 17 18 19
32 31 29 28 27 25 23 23 24 24 21 19 18 17 17 17 16 16 16 16 16 15 14 14 15 15 14 14 14 14 13 13 13 13 14 14 15 16 16 17 17 17 18 19
34 33 31 30 29 28 27 26 25 25 24 23 21 20 20 19 18 18 17 17 16 15 15 15 16 16 17 17 16 16 15 15 14 15 15 16 16 17 17 18 19 19 20 21
36 34 33 30 30 30 29 28 27 26 25 24 22 22 22 21 21 20 20 19 18 17 17 17 18 19 19 19 19 18 17 16 16 16 17 17 17 18 18 20 21 21 21 21
38 36 34 31 32 32 29 30 28 27 26 26 26 26 25 24 23 23 22 22 21 20 20 21 21 21 21 21 21 20 20 19 19 19 19 19 20 20 20 21 22 22 22 22
39 38 36 35 34 33 33 32 29 29 28 27 27 27 26 25 25 24 23 23 22 23 23 23 23 23 23 23 23 22 22 21 21 21 20 19 20 20 21 22 21 22 23 23
40 39 38 38 36 33 33 33 30 30 30 28 28 28 27 25 26 26 24 24 24 24 24 24 24 24 24 24 24 24 24 23 22 21 21 20 20 20 21 21 22 24 24 24
39 39 39 38 37 35 37 34 30 31 31 29 28 28 28 28 28 27 26 26 25 25 25 25 25 25 25 25 25 25 24 24 23 23 22 22 21 21 22 22 23 23 24 24
37 38 39 38 37 36 38 35 34 32 31 30 29 30 30 29 29 28 27 27 26 26 26 26 26 25 26 25 26 26 26 25 25 24 24 24 24 23 23 24 24 25 26 27
37 38 38 38 38 38 37 36 35 33 33 32 32 31 31 31 31 30 29 28 28 27 27 27 27 26 26 26 27 27 26 26 26 25 25 25 25 25 25 25 26 26 27 27
36 36 37 37 37 37 36 35 34 34 33 33 33 32 32 32 32 32 31 30 29 29 29 29 28 27 27 27 27 27 27 27 27 26 26 26 27 26 26 26 26 27 27 27
35 34 34 35 36 35 35 35 34 34 33 33 33 33 32 32 32 31 31 30 30 30 30 29 29 28 28 28 27 27 27 27 27 27 26 27 26 26 26 26 26 27 28 28
32 32 32 33 34 33 34 33 33 32 32 32 32 33 33 33 32 31 30 31 31 30 30 29 29 28 27 27 27 27 27 26 26 26 26 26 26 25 26 27 27 28 28 28
Wind_Direction
269 270 272 274 279 283 286 286 287 291 299 304 307 308 307 304 304 302 303 306 310 319 323 328 332 332 331 327 322 306 283 259 235 224 220 216 214 213 216 217 218 218 217 216
266 266 268 272 277 280 282 281 282 287 295 302 305 306 304 301 302 299 299 301 304 313 322 323 325 328 329 323 321 314 292 262 234 221 218 214 213 215 217 216 216 217 217 218
263 265 267 271 274 276 277 276 276 283 294 298 303 307 304 302 300 299 298 300 301 306 316 323 322 324 324 318 312 308 299 268 240 222 217 215 216 217 219 216 216 218 221 219
261 264 266 268 271 272 272 273 274 280 285 287 297 295 299 299 299 300 299 299 301 305 315 322 322 323 324 318 310 296 282 262 241 225 216 214 216 216 217 217 217 220 220 220
261 262 264 266 267 268 269 271 272 275 278 281 289 292 291 294 295 297 297 297 300 306 312 316 320 322 322 317 315 302 279 257 236 222 218 219 216 214 215 217 217 217 219 221
260 262 263 264 265 266 267 269 271 272 274 275 280 286 288 288 292 294 293 292 296 303 307 309 319 326 324 320 317 309 292 260 234 221 217 216 216 217 218 218 217 218 220 223
259 261 262 262 264 263 263 263 266 268 269 271 276 283 282 286 291 292 290 291 289 295 299 302 311 322 327 327 325 306 287 256 233 229 226 221 220 221 222 220 220 222 222 224
256 259 260 261 260 261 258 255 252 250 258 266 278 280 283 286 288 290 289 289 284 288 295 298 308 316 324 328 326 313 291 264 248 239 233 229 224 225 224 224 226 226 226 228
252 256 257 257 257 256 255 253 251 250 251 253 265 276 283 283 286 288 289 285 282 285 290 295 302 313 317 319 319 310 292 274 258 245 237 234 228 231 228 228 228 229 226 230
246 251 255 256 257 255 252 251 248 247 249 256 267 274 277 281 284 286 287 281 277 283 286 290 294 304 311 312 311 305 293 285 271 253 243 238 237 235 230 232 231 229 228 233
244 246 252 255 256 256 254 251 250 248 248 250 259 268 272 275 278 280 279 278 277 280 283 282 288 295 303 306 306 300 287 277 273 264 255 246 245 243 237 237 235 234 235 238
241 242 245 250 252 252 250 249 250 248 253 253 249 260 270 273 274 275 277 277 278 280 281 280 281 288 293 296 298 297 286 273 268 264 259 254 251 247 242 239 241 237 236 235
237 238 240 245 250 250 250 250 250 250 249 251 251 260 269 272 273 273 274 276 277 280 280 276 274 279 283 289 291 288 287 274 268 265 260 255 253 252 246 243 243 239 238 238
235 236 234 232 242 247 248 247 248 248 249 253 253 250 264 272 272 270 271 276 278 280 280 275 271 274 279 284 286 285 284 279 275 270 265 261 257 253 249 248 247 246 242 242
234 236 235 232 234 240 244 244 245 246 246 247 253 256 262 267 270 269 272 275 277 278 275 273 271 272 277 280 280 280 280 279 277 274 268 264 259 254 250 249 250 250 248 245
234 236 237 237 239 241 241 241 243 245 246 247 250 256 259 265 267 268 270 276 277 276 274 272 271 272 274 276 277 276 276 276 277 276 272 267 263 259 255 254 253 253 252 250
235 236 237 239 240 240 241 241 242 245 246 248 253 257 261 264 265 267 270 274 273 273 274 273 273 273 273 273 275 276 275 276 278 278 276 271 264 262 258 256 256 255 252 253
236 237 238 238 241 242 243 243 242 244 246 248 252 257 262 263 263 264 267 268 267 268 270 270 270 270 272 272 273 274 273 274 275 276 275 271 266 264 261 260 256 254 253 253
235 237 239 240 243 246 245 245 243 246 248 250 253 256 259 261 262 262 264 265 265 266 268 267 267 268 269 270 271 270 272 272 272 272 274 272 266 265 264 259 258 254 254 254
235 236 239 241 241 243 250 247 244 247 250 249 251 253 256 259 261 262 263 264 265 266 267 267 266 267 268 268 269 268 269 268 268 270 270 271 271 270 266 261 260 256 256 256
234 236 237 240 243 244 247 250 248 248 250 250 249 250 252 255 258 262 262 263 264 265 265 264 265 267 267 266 266 265 265 266 266 267 268 268 268 269 267 263 262 260 258 259
234 236 238 239 241 243 247 249 249 249 250 251 250 250 251 253 256 258 260 261 262 263 263 263 264 267 266 266 264 263 263 263 264 265 265 266 266 267 266 265 263 262 262 261
234 235 237 239 241 243 247 248 249 249 249 249 249 249 250 251 254 255 257 258 260 261 262 263 264 265 265 264 262 260 260 261 263 263 264 264 265 266 267 266 265 265 262 261
235 236 239 240 242 243 245 247 247 248 248 248 249 249 248 250 252 253 255 257 258 260 262 263 263 264 264 262 260 259 259 261 261 262 263 263 264 266 267 267 267 265 263 263
235 236 238 240 242 243 244 245 246 247 247 247 247 248 249 250 252 254 254 255 256 258 260 261 261 262 263 261 259 259 260 261 261 262 264 264 263 263 263 264 265 264 262 261
234 235 236 237 240 241 243 244 245 245 246 246 247 247 249 250 252 253 255 256 257 257 259 260 260 260 261 261 259 258 259 260 261 263 263 262 262 263 263 262 262 262 261 262
Height
5892 5893 5893 5894 5894 5895 5895 5895 5894 5893 5893 5893 5893 5892 5891 5889 5888 5886 5885 5883 5881 5878 5876 5873 5871 5869 5867 5865 5864 5862 5861 5861 5862 5864 5866 5869 5871 5874 5877 5879 5881 5883 5885 5887
5888 5889 5890 5890 5891 5891 5891 5892 5891 5891 5890 5891 5890 5889 5888 5887 5885 5884 5882 5881 5879 5877 5874 5872 5870 5868 5866 5864 5862 5860 5860 5859 5860 5862 5864 5866 5869 5871 5874 5876 5879 5881 5883 5885
5884 5885 5885 5886 5887 5888 5888 5888 5888 5888 5888 5888 5888 5888 5886 5884 5882 5881 5880 5878 5877 5875 5873 5870 5868 5866 5864 5862 5860 5859 5858 5857 5857 5859 5861 5864 5866 5869 5872 5874 5876 5879 5881 5883
5878 5880 5881 5882 5883 5883 5884 5884 5884 5885 5885 5886 5886 5886 5884 5881 5880 5879 5877 5876 5874 5872 5871 5868 5866 5864 5862 5860 5858 5857 5856 5855 5856 5858 5860 5862 5864 5867 5869 5871 5874 5876 5878 5880
5874 5875 5876 5877 5878 5879 5880 5880 5881 5882 5882 5883 5882 5883 5883 5879 5878 5876 5875 5873 5872 5870 5869 5867 5865 5862 5860 5858 5856 5854 5854 5854 5855 5856 5858 5860 5862 5864 5867 5869 5871 5873 5875 5878
5868 5869 5871 5872 5873 5874 5876 5877 5877 5878 5879 5880 5880 5880 5880 5877 5875 5874 5872 5871 5869 5868 5866 5865 5863 5861 5859 5856 5855 5853 5852 5852 5853 5854 5856 5858 5860 5862 5864 5867 5869 5871 5873 5875
5862 5864 5865 5867 5868 5870 5872 5874 5875 5876 5877 5878 5876 5876 5876 5873 5872 5871 5870 5868 5867 5866 5864 5863 5861 5859 5857 5855 5853 5852 5851 5851 5852 5853 5854 5856 5857 5859 5862 5864 5866 5868 5870 5872
5857 5859 5860 5861 5863 5865 5867 5870 5872 5875 5876 5875 5872 5872 5872 5870 5869 5868 5866 5865 5864 5863 5862 5861 5859 5858 5856 5854 5852 5851 5851 5851 5851 5852 5853 5854 5855 5857 5858 5860 5863 5865 5867 5869
5852 5853 5854 5856 5858 5860 5861 5864 5867 5869 5869 5871 5871 5869 5868 5867 5866 5865 5864 5862 5862 5861 5860 5859 5858 5856 5855 5853 5852 5850 5850 5850 5850 5850 5851 5852 5853 5854 5856 5858 5859 5861 5863 5865
5846 5848 5849 5850 5853 5855 5857 5859 5861 5863 5865 5867 5868 5866 5866 5864 5863 5862 5861 5860 5859 5859 5858 5857 5856 5855 5854 5852 5851 5850 5849 5849 5848 5848 5849 5850 5851 5852 5853 5855 5856 5858 5860 5861
5840 5843 5844 5846 5848 5850 5852 5854 5856 5859 5861 5864 5865 5867 5862 5861 5860 5859 5858 5858 5857 5856 5855 5855 5854 5853 5852 5851 5849 5848 5847 5847 5847 5847 5848 5848 5849 5850 5851 5852 5853 5854 5856 5858
5834 5838 5840 5841 5843 5844 5847 5849 5852 5855 5856 5857 5860 5864 5857 5857 5856 5856 5855 5855 5854 5853 5853 5852 5851 5850 5850 5849 5847 5846 5846 5845 5845 5845 5846 5846 5846 5847 5848 5849 5849 5850 5852 5853
5828 5831 5835 5837 5839 5840 5841 5844 5846 5849 5851 5852 5855 5859 5853 5853 5853 5852 5852 5851 5851 5850 5849 5849 5848 5848 5847 5846 5846 5845 5844 5843 5843 5843 5844 5844 5844 5844 5845 5846 5846 5847 5849 5850
5821 5824 5829 5835 5836 5835 5836 5839 5841 5843 5846 5848 5850 5852 5849 5849 5849 5849 5848 5848 5847 5847 5846 5845 5845 5845 5844 5844 5843 5842 5842 5841 5841 5841 5841 5841 5841 5841 5842 5842 5843 5844 5845 5846
5813 5817 5821 5824 5826 5828 5831 5833 5835 5837 5840 5843 5845 5845 5845 5844 5844 5844 5844 5844 5843 5843 5842 5842 5841 5841 5841 5840 5840 5839 5839 5839 5838 5838 5838 5837 5837 5838 5838 5839 5840 5841 5842 5842
5804 5809 5813 5816 5819 5821 5824 5826 5829 5831 5834 5836 5838 5840 5839 5839 5839 5839 5839 5839 5839 5838 5838 5837 5837 5837 5837 5836 5836 5836 5836 5835 5835 5834 5834 5834 5834 5834 5834 5835 5836 5836 5837 5838
5796 5801 5805 5809 5811 5813 5816 5820 5822 5825 5827 5830 5832 5833 5832 5833 5834 5834 5834 5834 5833 5833 5833 5833 5832 5832 5832 5832 5831 5831 5831 5831 5831 5830 5830 5829 5829 5830 5830 5830 5831 5831 5832 5833
5787 5792 5796 5801 5803 5806 5812 5811 5815 5817 5820 5822 5824 5825 5826 5826 5827 5827 5828 5828 5828 5828 5828 5828 5827 5827 5827 5827 5826 5826 5826 5826 5826 5825 5825 5824 5824 5825 5825 5825 5825 5826 5827 5827
5778 5783 5788 5792 5794 5798 5801 5804 5807 5810 5812 5815 5816 5817 5818 5819 5819 5820 5821 5821 5821 5821 5821 5821 5821 5821 5821 5821 5821 5821 5821 5820 5820 5820 5820 5819 5819 5819 5819 5819 5820 5820 5821 5822
5769 5774 5779 5782 5786 5790 5794 5795 5799 5803 5804 5806 5808 5809 5811 5812 5812 5812 5814 5814 5814 5815 5815 5815 5815 5815 5815 5815 5815 5814 5814 5815 5815 5814 5814 5814 5814 5814 5814 5814 5814 5814 5815 5816
5760 5764 5768 5772 5776 5782 5783 5786 5791 5795 5796 5798 5799 5801 5803 5804 5805 5805 5806 5806 5807 5807 5808 5808 5808 5808 5808 5808 5808 5808 5808 5808 5808 5808 5808 5808 5808 5808 5808 5808 5809 5809 5809 5810
5752 5756 5759 5764 5768 5774 5773 5777 5782 5784 5787 5789 5791 5793 5794 5795 5797 5797 5798 5799 5799 5799 5800 5800 5801 5801 5800 5800 5801 5801 5801 5802 5802 5802 5802 5802 5802 5802 5802 5803 5803 5803 5803 5804
5742 5747 5750 5755 5759 5761 5764 5767 5771 5774 5777 5779 5781 5783 5785 5786 5788 5789 5790 5791 5791 5792 5792 5793 5793 5793 5793 5793 5794 5794 5794 5794 5795 5795 5795 5795 5796 5796 5796 5796 5796 5796 5796 5797
5732 5737 5741 5744 5747 5751 5754 5757 5761 5764 5767 5769 5772 5774 5776 5777 5779 5780 5781 5782 5783 5784 5784 5785 5785 5785 5786 5786 5786 5787 5787 5787 5787 5788 5788 5788 5788 5789 5789 5789 5789 5789 5789 5790
5723 5728 5731 5735 5737 5741 5744 5747 5751 5754 5757 5760 5762 5764 5766 5768 5770 5771 5772 5773 5774 5775 5775 5776 5777 5777 5778 5778 5778 5779 5779 5779 5779 5780 5781 5781 5781 5781 5781 5781 5782 5782 5782 5782
5715 5719 5723 5725 5728 5732 5735 5738 5741 5744 5747 5750 5752 5755 5756 5758 5760 5762 5763 5764 5765 5766 5767 5767 5768 5768 5769 5770 5770 5771 5771 5771 5772 5773 5773 5773 5773 5774 5774 5774 5774 5774 5775 5775